Location: Newark
(47.5833°N, 8.1500°E)
Time: 08:03:43
(UTC+00:00)

Tiros 1 despin weight - Pass Details

Date: 06 November 2020
Orbit: 593 x 642 km, 48.2° (Epoch: 28 November)

Event Time Altitude Azimuth Distance (km) Brightness Sun altitude
Rises 21:47:50 0° 256° (WSW) 2,895 - -54.3°
Reaches altitude 10° 21:50:09 10° 256° (WSW) 1,982 - -54.6°
Maximum altitude 21:54:43 86° 168° (SSE) 619 - -55.0°
Drops below altitude 10° 21:59:13 10° 80° (E) 1,954 - -55.4°
Sets 22:01:30 0° 80° (E) 2,851 - -55.6°
